Flag for French Polynesia Weather past 2 weeks in Papeete, Tahiti, French Polynesia

Now
70 °F

Passing clouds.


Feels Like: 70 °F
Forecast: 71 / 77 °F
Wind: 18 mph from South

Location: Tahiti-Faaa

Current Time: Aug 30, 2014 at 3:09:44 AM

Latest Report: Aug 30, 2014 at 2:30 AM


Visibility: N/A

Pressure: 29.89 "Hg

Humidity: 83%

Dew point: 64 °F

Location of PapeeteLocation

Historic Weather in Papeete — Graph

°F

Papeete temperature yesterday

Maximum temperature yesterday: 81 °F (at 8:00 AM)
Minimum temperature yesterday: 70 °F (at 9:00 PM)
Average temperature yesterday: 75 °F

Past Weeks' High & Low Weather Summary

 TemperatureHumidityPressure
High86 °F (Aug 15, 11:00 AM)94% (Aug 15, 7:30 PM)30.04 "Hg (Aug 15, 7:30 PM)
Low70 °F (Aug 28, 3:30 AM)58% (Aug 16, 12:30 PM)29.80 "Hg (Aug 29, 2:30 AM)
Average78 °F73%29.94 "Hg
* Reported Aug 15 2:30 AM — Aug 30 2:00 AM, Papeete, Weather by CustomWeather, © 2014

Note: Actual official high and low records may vary slightly from our data, if they occured in-between our weather recording intervals... More about our weather records

Advertising

Papeete weather history for previous 24 hours

 ConditionsComfort  
Time TempWeatherWind HumidityBarometerVisibility
2:00 AM
Aug 30
72 °FPassing clouds.15 mph78%29.89 "HgN/A
1:30 AM70 °FPassing clouds.17 mph83%29.89 "HgN/A
1:00 AM70 °FPassing clouds.18 mph88%29.89 "HgN/A
12:30 AM70 °FPassing clouds.24 mph94%29.89 "HgN/A
12:00 AM70 °FPassing clouds.16 mph88%29.89 "HgN/A
11:30 PM
Aug 29
70 °FPassing clouds.20 mph88%29.89 "HgN/A
11:00 PM72 °FPassing clouds.16 mph83%29.92 "HgN/A
10:30 PM70 °FPassing clouds.21 mph88%29.92 "HgN/A
10:00 PM70 °FPartly cloudy.23 mph88%29.89 "HgN/A
9:30 PM70 °FLight rain. Partly cloudy.20 mph88%29.89 "Hg4 mi
9:00 PM70 °FLight rain. Partly cloudy.22 mph94%29.89 "Hg4 mi
8:30 PM72 °FPartly cloudy.21 mph88%29.89 "HgN/A
8:00 PM72 °FLight rain. Partly cloudy.24 mph88%29.89 "Hg6 mi
7:30 PM72 °FScattered showers. Passing clouds.24 mph88%29.86 "HgN/A
7:00 PM72 °FScattered showers. Passing clouds.20 mph88%29.86 "HgN/A
6:30 PM72 °FPartly cloudy.16 mph88%29.83 "Hg6 mi
6:00 PM72 °FLight rain. Partly cloudy.12 mph94%29.83 "Hg2 mi
5:30 PM73 °FLight rain. Broken clouds.8 mph83%29.83 "Hg4 mi
5:00 PM73 °FLight rain. Broken clouds.3 mph83%29.83 "Hg2 mi
4:30 PM73 °FSprinkles. Broken clouds.10 mph94%29.83 "HgN/A
4:00 PM73 °FSprinkles. Broken clouds.8 mph94%29.80 "HgN/A
3:30 PM73 °FSprinkles. Broken clouds.10 mph94%29.83 "Hg1 mi
3:04 PM77 °FSprinkles. Partly sunny.3 mph79%29.80 "Hg3 mi
2:30 PM77 °FScattered showers. Partly sunny.6 mph79%29.80 "HgN/A
2:00 PM77 °FBroken clouds.6 mph79%29.83 "HgN/A
1:30 PM79 °FScattered showers. Broken clouds.3 mph70%29.83 "HgN/A
1:00 PM79 °FScattered showers. Broken clouds.6 mph70%29.83 "HgN/A
12:30 PM77 °FScattered showers. Broken clouds.8 mph74%29.86 "HgN/A
12:00 PM75 °FScattered showers. Broken clouds.14 mph83%29.86 "HgN/A
11:30 AM81 °FScattered showers. Broken clouds.12 mph70%29.86 "HgN/A
11:00 AM81 °FScattered showers. Broken clouds.14 mph70%29.89 "HgN/A
9:00 AM73 °FScattered showers. Partly sunny.9 mph89%29.89 "HgN/A
8:30 AM79 °FSprinkles. Partly sunny.10 mph74%29.89 "HgN/A
8:00 AM81 °FPartly sunny.8 mph70%29.86 "HgN/A
7:30 AM79 °FPartly sunny.6 mph70%29.86 "HgN/A
7:12 AM79 °FScattered showers. Partly sunny.7 mph70%29.86 "HgN/A
6:30 AM77 °FScattered showers. Partly sunny.7 mph69%29.83 "HgN/A
6:00 AM77 °FScattered showers. Passing clouds.7 mph74%29.83 "HgN/A
5:30 AM77 °FOvercast.8 mph69%29.83 "HgN/A
5:00 AM77 °FOvercast.8 mph69%29.80 "HgN/A
4:30 AM75 °FPassing clouds.7 mph74%29.80 "HgN/A
4:00 AM75 °FOvercast.6 mph74%29.80 "HgN/A
3:30 AM75 °FOvercast.6 mph74%29.80 "HgN/A
3:00 AM77 °FScattered showers. Passing clouds.6 mph69%29.80 "HgN/A
Weather by CustomWeather, © 2014

See weather overviewHow to use our weather pages